Starlink 31929

operational
NORAD ID: 59836 Int'l Des: 2024-097 Owner: SPXS Country: US Constellation: starlink
LEOCIRCULAR

About Starlink 31929

Description loading...

Live Position

Loading 3D Globe...

Upcoming Passes

Altitude History

Altitude vs Time

uPlot chart will show altitude changes over time

Two-Line Element Set

1 59836U 24097B 25259.17572068 .00000787 00000-0 38123-4 0 9995
2 59836 42.9965 180.2263 0000929 109.4852 250.6101 15.27578467 75222
Epoch: Sep 16, 2025 • Age: 11 hours

Current Status

Altitude 496.2 km
Velocity 7.62 km/s
Sub-Earth Point -41.42°S, 148.99°W
Launch Date May 23, 2024
Age 1.3 years
Type internet

Technical Details

Classification Payload
Mass 730.00 kg
Dry Mass 700.00 kg
Total Mass 730.00 kg
Length 0.30 m
Diameter 4.10 m
Span 29.00 m
Shape Box + pan
Manufacturer SPXS
Bus Type Starlink V2M
Phase Status In Orbit
Owner/State SPXS/US

Large Constellations

Loading constellations...